This is the latest recevied weather packets stored in our database for station/object KE8KMM. If no packets are shown the sender has not sent any weather packets the latest 1 day(s).
| Time | Temp. | Humidity | Pressure | Rain* | Wind** | Luminosity | Snow |
|---|---|---|---|---|---|---|---|
| 1778046220 | 14.44° C | 97% | 1005.2 hPa | 0 mm | - | 0 W/m² | - |
| 1778045313 | 15° C | 97% | 1005.3 hPa | 0 mm | - | 0 W/m² | - |
| 1778044709 | 15° C | 97% | 1005.6 hPa | 1.78 mm | - | 0 W/m² | - |
| 1778044405 | 15° C | 97% | 1005.6 hPa | 0 mm | - | 0 W/m² | - |
| 1778043193 | 15° C | 97% | 1005.8 hPa | 1.27 mm | - | 0 W/m² | - |
| 1778042890 | 15° C | 97% | 1005.8 hPa | 3.05 mm | - | 0 W/m² | - |
| 1778042588 | 15° C | 97% | 1005.9 hPa | 1.78 mm | - | 0 W/m² | - |
| 1778042285 | 15° C | 97% | 1005.9 hPa | 1.27 mm | - | 0 W/m² | - |
| 1778041681 | 15° C | 97% | 1006.1 hPa | 3.05 mm | - | 0 W/m² | - |
| 1778041379 | 15° C | 97% | 1006.2 hPa | 3.05 mm | - | 0 W/m² | - |
| 1778040774 | 15° C | 97% | 1006.3 hPa | 1.27 mm | - | 0 W/m² | - |
| 1778040471 | 15° C | 97% | 1006.4 hPa | 1.78 mm | - | 0 W/m² | - |
| 1778039865 | 15° C | 97% | 1006.1 hPa | 3.05 mm | - | 0 W/m² | - |
| 1778039562 | 15° C | 97% | 1006.2 hPa | 0 mm | - | 0 W/m² | - |
| 1778039259 | 15° C | 97% | 1006.4 hPa | 1.27 mm | - | 0 W/m² | - |
| 1778038956 | 15° C | 97% | 1006.4 hPa | 1.27 mm | - | 0 W/m² | - |
| 1778038653 | 15° C | 97% | 1006.5 hPa | 1.78 mm | - | 0 W/m² | - |
| 1778038047 | 15° C | 97% | 1006.2 hPa | 0 mm | - | 0 W/m² | - |
| 1778037744 | 15° C | 97% | 1006.2 hPa | 1.78 mm | - | 0 W/m² | - |
| 1778037440 | 15° C | 97% | 1006.5 hPa | 1.27 mm | - | 0 W/m² | - |
| 1778037138 | 15° C | 97% | 1006.5 hPa | 3.05 mm | - | 0 W/m² | - |
| 1778036836 | 15° C | 96% | 1006.4 hPa | 3.05 mm | - | 0 W/m² | - |
| 1778036533 | 15° C | 96% | 1006.4 hPa | 3.05 mm | - | 0 W/m² | - |
| 1778036230 | 15° C | 96% | 1006.3 hPa | 3.05 mm | - | 0 W/m² | - |
| 1778035016 | 15° C | 96% | 1006.4 hPa | 1.78 mm | - | 0 W/m² | - |
* Rain latest hour (hover to see other rain measurements)
** Current wind speed in m/s (hover to see current wind gust speed)